20050702,000016,271922,33.144413,-117.480728,17.6,17.859,33.330,43.802,914.13,0.0,7.164,17.761,17.724, NaN,24.028,   NaN,16.45,1011.45,94.97,16.82,21.2,21.7,8.2,8.7,245.5,242.1,3.7,4.2,NaN, NaN,25.9,186.8,187.3,1120262417,1120262417,1,11.0,000016,000017,187.6,33.144485,-117.480690,11.05,NaN,NaN,17.863, NaN,NaN,NaN, NaN, NaN
20050702,000045,271950,33.142908,-117.480936,17.9,17.909,33.337,43.859,870.30,0.0,7.447,17.776,17.738, NaN,24.021,   NaN,16.43,1011.47,95.09,16.76,26.8,25.7,7.0,7.6,267.1,258.2,3.4,3.7,NaN, NaN,27.2,190.8,187.9,1120262447,1120262447,1,10.9,000046,000047,186.9,33.142983,-117.480890,10.97,NaN,NaN,17.913, NaN,NaN,NaN, NaN, NaN
20050702,000115,271980,33.141445,-117.481105,17.7,17.920,33.374,43.912,819.66,0.0,7.051,17.784,17.745, NaN,24.047,   NaN,16.43,1011.49,95.10,16.78,29.9,27.8,6.1,6.6,283.8,273.3,3.2,3.3,NaN, NaN,26.6,186.9,185.9,1120262477,1120262477,1,10.9,000075,000077,188.1,33.141475,-117.481066,11.03,NaN,NaN,17.924, NaN,NaN,NaN, NaN, NaN
20050702,000145,272011,33.139933,-117.481311,17.6,17.897,33.397,43.918,792.96,0.0,6.730,17.795,17.756, NaN,24.070,   NaN,16.46,1011.48,95.16,16.76,26.9,26.6,5.8,6.3,286.6,277.2,2.8,3.0,NaN, NaN,26.5,183.5,185.1,1120262507,1120262507,1,11.0,000105,000107,187.8,33.139967,-117.481270,11.07,NaN,NaN,17.901, NaN,NaN,NaN, NaN, NaN
20050702,000215,272041,33.138422,-117.481511,17.5,17.947,33.360,43.922,776.33,0.0,6.673,17.809,17.769, NaN,24.029,   NaN,16.47,1011.47,95.17,16.78,23.7,24.5,6.0,6.5,280.8,271.4,2.5,2.8,NaN, NaN,27.3,183.1,184.7,1120262537,1120262537,1,10.9,000135,000137,187.3,33.138453,-117.481468,11.04,NaN,NaN,17.951, NaN,NaN,NaN, NaN, NaN
20050702,000245,272071,33.136908,-117.481688,17.9,17.942,33.391,43.954,772.11,0.0,6.447,17.792,17.753, NaN,24.054,   NaN,16.48,1011.46,95.09,16.77,23.9,24.7,6.3,6.9,275.1,266.2,2.7,3.1,NaN, NaN,26.5,189.4,187.8,1120262567,1120262567,1,10.9,000165,000167,187.6,33.136942,-117.481650,10.86,NaN,NaN,17.946, NaN,NaN,NaN, NaN, NaN
20050702,000316,272102,33.135358,-117.481900,17.7,17.861,33.439,43.931,773.19,0.0,6.258,17.765,17.727, NaN,24.110,   NaN,16.55,1011.41,95.26,16.80,22.6,23.7,7.0,7.6,262.4,255.6,3.0,3.5,NaN, NaN,23.0,187.6,187.0,1120262597,1120262597,1,10.9,000196,000197,187.5,33.135423,-117.481851,11.09,NaN,NaN,17.865, NaN,NaN,NaN, NaN, NaN
20050702,000345,272130,33.133895,-117.482086,17.7,17.852,33.404,43.881,774.95,0.0,6.107,17.763,17.727, NaN,24.086,   NaN,16.54,1011.45,95.01,16.82,18.4,20.0,7.7,8.1,244.5,242.6,3.1,3.6,NaN, NaN,23.2,185.3,185.9,1120262627,1120262627,1,10.9,000225,000227,187.8,33.133908,-117.482046,11.05,NaN,NaN,17.856, NaN,NaN,NaN, NaN, NaN
20050702,000415,272161,33.132385,-117.482275,17.6,17.881,33.383,43.884,786.66,0.0,5.786,17.778,17.739, NaN,24.063,   NaN,16.52,1011.39,94.97,16.79,14.9,16.9,7.9,8.2,234.5,235.9,3.0,3.4,NaN, NaN,22.9,183.9,184.9,1120262657,1120262657,1,10.9,000255,000257,187.5,33.132398,-117.482238,10.88,NaN,NaN,17.885, NaN,NaN,NaN, NaN, NaN
20050702,000446,272191,33.130830,-117.482466,17.9,17.901,33.384,43.906,802.49,0.0,5.918,17.783,17.740, NaN,24.059,   NaN,16.52,1011.34,94.94,16.79,14.3,15.7,8.2,8.6,230.5,230.5,3.2,3.7,NaN, NaN,22.8,184.7,185.2,1120262687,1120262687,1,10.9,000286,000287,188.1,33.130893,-117.482418,10.99,NaN,NaN,17.905, NaN,NaN,NaN, NaN, NaN
20050702,000515,272221,33.129378,-117.482670,17.7,17.888,33.396,43.907,807.10,0.0,5.729,17.783,17.743, NaN,24.071,   NaN,16.53,1011.41,94.96,16.81,16.1,17.3,8.4,8.9,232.2,231.5,3.5,4.0,NaN, NaN,22.7,187.3,186.7,1120262717,1120262717,1,10.9,000315,000317,187.5,33.129393,-117.482633,10.85,NaN,NaN,17.892, NaN,NaN,NaN, NaN, NaN
20050702,000545,272251,33.127818,-117.482883,17.7,17.925,33.372,43.914,795.69,0.0,5.937,17.789,17.752, NaN,24.044,   NaN,16.54,1011.36,94.99,16.82,18.9,20.1,8.2,8.7,239.2,237.4,3.5,4.0,NaN, NaN,22.6,185.6,185.7,1120262747,1120262747,1,10.9,000346,000347,186.8,33.127888,-117.482840,10.98,NaN,NaN,17.929, NaN,NaN,NaN, NaN, NaN
20050702,000615,272280,33.126363,-117.483070,17.7,17.887,33.420,43.935,789.98,0.0,5.842,17.804,17.766, NaN,24.090,   NaN,16.47,1011.38,94.69,16.76,20.2,21.2,7.7,8.2,247.8,244.9,3.3,3.7,NaN, NaN,21.9,187.9,187.8,1120262777,1120262777,1,10.9,000375,000377,187.8,33.126382,-117.483031,10.97,NaN,NaN,17.891, NaN,NaN,NaN, NaN, NaN
20050702,000646,272312,33.124802,-117.483293,17.9,17.779,33.475,43.895,797.37,0.0,5.522,17.810,17.770, NaN,24.158,   NaN,16.45,1011.36,94.86,16.76,20.8,21.3,7.5,8.0,251.5,247.1,3.1,3.5,NaN, NaN,22.0,186.2,186.8,1120262807,1120262807,1,10.9,000406,000407,187.3,33.124865,-117.483241,11.04,NaN,NaN,17.783, NaN,NaN,NaN, NaN, NaN
20050702,000715,272341,33.123337,-117.483490,17.7,17.734,33.430,43.799,788.58,0.0,5.465,17.814,17.776, NaN,24.134,   NaN,16.44,1011.43,94.81,16.74,20.2,20.8,7.5,8.0,250.5,245.8,3.0,3.5,NaN, NaN,21.8,186.0,185.7,1120262837,1120262837,1,11.0,000435,000437,187.8,33.123347,-117.483446,11.11,NaN,NaN,17.738, NaN,NaN,NaN, NaN, NaN
20050702,000745,272371,33.121820,-117.483691,17.8,17.856,33.335,43.805,793.68,0.0,6.012,17.819,17.781, NaN,24.032,   NaN,16.43,1011.45,94.84,16.74,18.9,19.7,6.9,7.3,257.5,251.8,2.5,2.9,NaN, NaN,21.6,186.1,186.6,1120262867,1120262867,1,11.0,000465,000467,187.9,33.121832,-117.483650,11.04,NaN,NaN,17.860, NaN,NaN,NaN, NaN, NaN
20050702,000816,272401,33.120258,-117.483915,17.8,17.914,33.359,43.889,830.10,0.0,6.069,17.832,17.793, NaN,24.036,   NaN,16.44,1011.41,94.82,16.74,17.4,19.1,6.4,6.7,265.1,260.2,2.1,2.4,NaN, NaN,21.8,184.7,185.5,1120262897,1120262897,1,10.9,000496,000497,188.0,33.120325,-117.483863,10.94,NaN,NaN,17.918, NaN,NaN,NaN, NaN, NaN
20050702,000845,272431,33.118795,-117.484111,17.7,17.898,33.394,43.914,796.06,0.0,6.163,17.846,17.810, NaN,24.067,   NaN,16.43,1011.40,94.82,16.73,18.7,20.6,6.1,6.5,271.8,266.4,2.1,2.4,NaN, NaN,21.8,186.6,186.5,1120262927,1120262927,1,11.0,000525,000527,187.5,33.118812,-117.484070,11.01,NaN,NaN,17.902, NaN,NaN,NaN, NaN, NaN
20050702,000915,272460,33.117227,-117.484306,17.8,17.791,33.453,43.880,773.50,0.0,6.390,17.866,17.832, NaN,24.138,   NaN,16.44,1011.40,94.88,16.73,21.2,22.5,6.0,6.4,279.3,271.9,2.3,2.6,NaN, NaN,21.6,188.2,187.4,1120262957,1120262957,1,10.9,000556,000557,188.1,33.117300,-117.484253,10.90,NaN,NaN,17.795, NaN,NaN,NaN, NaN, NaN
20050702,000945,272490,33.115768,-117.484543,17.8,17.810,33.381,43.814,742.95,0.0,7.164,17.893,17.856, NaN,24.078,   NaN,16.51,1011.34,95.03,16.75,22.5,23.7,6.4,6.8,274.6,267.8,2.7,3.1,NaN, NaN,21.4,192.4,191.2,1120262987,1120262987,1,11.0,000585,000587,190.0,33.115797,-117.484503,10.89,NaN,NaN,17.814, NaN,NaN,NaN, NaN, NaN
20050702,001015,272521,33.114267,-117.484831,17.6,17.987,33.286,43.873,722.75,0.0,8.145,17.909,17.871, NaN,23.963,   NaN,16.51,1011.34,94.89,16.77,22.5,24.3,7.0,7.6,262.0,257.3,3.0,3.5,NaN, NaN,21.8,188.9,188.8,1120263017,1120263017,1,11.1,000615,000617,189.5,33.114293,-117.484788,10.94,NaN,NaN,17.991, NaN,NaN,NaN, NaN, NaN
20050702,001046,272551,33.112702,-117.485113,17.6,18.123,33.290,44.008,719.82,0.0,9.920,17.927,17.890, NaN,23.933,   NaN,16.52,1011.28,95.04,16.79,18.2,20.5,7.7,8.3,245.7,244.3,3.1,3.7,NaN, NaN,21.3,190.1,189.4,1120263047,1120263047,1,11.1,000646,000647,189.5,33.112780,-117.485061,10.93,NaN,NaN,18.127, NaN,NaN,NaN, NaN, NaN
20050702,001116,272582,33.111187,-117.485380,17.9,18.127,33.360,44.095,728.05,0.0,10.184,17.946,17.910, NaN,23.985,   NaN,16.54,1011.26,94.88,16.81,15.9,16.9,8.5,9.1,233.6,231.8,3.5,4.1,NaN, NaN,21.5,187.2,188.0,1120263077,1120263077,1,11.0,000676,000677,189.1,33.111267,-117.485333,10.95,NaN,NaN,18.131, NaN,NaN,NaN, NaN, NaN
20050702,001145,272610,33.109673,-117.485628,17.8,18.151,33.360,44.117,744.04,0.0,10.109,17.951,17.914, NaN,23.979,   NaN,16.44,1011.26,94.68,16.73,14.8,15.6,8.4,8.8,231.0,230.7,3.4,3.7,NaN, NaN,21.7,183.9,187.7,1120263107,1120263107,1,10.7,000706,000707,180.8,33.109760,-117.485596,11.05,NaN,NaN,18.155, NaN,NaN,NaN, NaN, NaN
20050702,001215,272640,33.108280,-117.485235,17.7,18.190,33.362,44.158,770.88,0.0,9.505,17.956,17.921, NaN,23.971,   NaN,16.43,1011.32,94.93,16.72,19.7,20.3,7.2,7.6,236.1,232.5,2.7,3.0,NaN, NaN,21.6,153.5,152.8,1120263137,1120263137,1,10.4,000736,000737,154.1,33.108370,-117.485256,10.20,NaN,NaN,18.194, NaN,NaN,NaN, NaN, NaN
20050702,001245,272671,33.106967,-117.484548,17.9,18.208,33.365,44.179,795.16,0.0,9.297,17.966,17.931, NaN,23.970,   NaN,16.46,1011.31,94.95,16.77,24.6,24.5,6.2,6.7,244.3,235.1,2.5,2.8,NaN, NaN,22.1,154.9,156.8,1120263167,1120263167,1,10.8,000765,000767,159.0,33.107013,-117.484538,10.76,NaN,NaN,18.212, NaN,NaN,NaN, NaN, NaN
20050702,001315,272701,33.105555,-117.483883,18.0,18.222,33.372,44.201,809.46,0.0,9.297,17.993,17.959, NaN,23.971,   NaN,16.43,1011.31,94.88,16.76,28.5,27.5,5.9,6.1,254.6,248.9,2.9,2.9,NaN, NaN,22.0,158.8,157.8,1120263197,1120263196,1,11.0,000795,000796,158.0,33.105645,-117.483900,11.03,NaN,NaN,18.226, NaN,NaN,NaN, NaN, NaN
20050702,001345,272731,33.104085,-117.483181,17.8,18.282,33.345,44.226,816.28,0.0,9.561,18.041,18.008, NaN,23.936,   NaN,16.41,1011.32,94.86,16.73,32.5,31.4,5.6,5.7,265.2,261.7,3.2,3.1,NaN, NaN,21.8,159.6,157.9,1120263227,1120263227,1,11.1,000826,000827,158.3,33.104185,-117.483196,10.79,NaN,NaN,18.286, NaN,NaN,NaN, NaN, NaN
20050702,001415,272761,33.102713,-117.482505,17.8,18.358,33.335,44.288,815.60,0.0,10.467,18.102,18.069, NaN,23.909,   NaN,16.34,1011.31,94.75,16.70,31.9,31.4,5.2,5.4,272.1,268.5,3.1,3.1,NaN, NaN,22.0,160.0,159.1,1120263257,1120263257,1,11.0,000855,000857,158.3,33.102767,-117.482500,11.01,NaN,NaN,18.362, NaN,NaN,NaN, NaN, NaN
20050702,001445,272790,33.101245,-117.481803,17.8,18.437,33.329,44.357,827.89,0.0,9.769,18.165,18.134, NaN,23.885,   NaN,16.39,1011.29,95.00,16.70,33.1,31.9,5.4,5.6,270.4,265.7,3.3,3.2,NaN, NaN,22.0,158.0,157.9,1120263287,1120263287,1,10.9,000886,000887,159.0,33.101345,-117.481821,11.06,NaN,NaN,18.441, NaN,NaN,NaN, NaN, NaN
20050702,001516,272822,33.099812,-117.481175,17.9,18.509,33.331,44.429,856.29,0.0,8.712,18.248,18.218, NaN,23.869,   NaN,16.40,1011.28,94.93,16.72,35.6,34.5,5.7,5.9,266.1,262.4,3.5,3.5,NaN, NaN,22.1,162.8,160.9,1120263317,1120263317,1,10.9,000916,000917,158.6,33.099912,-117.481188,11.04,NaN,NaN,18.513, NaN,NaN,NaN, NaN, NaN
20050702,001545,272851,33.098453,-117.480546,17.9,18.618,33.309,44.508,887.67,0.0,6.843,18.326,18.295, NaN,23.825,   NaN,16.42,1011.29,94.93,16.74,35.2,34.1,6.1,6.5,259.0,252.8,3.5,3.7,NaN, NaN,22.0,161.5,159.2,1120263347,1120263347,1,10.8,000945,000947,158.3,33.098500,-117.480545,10.74,NaN,NaN,18.622, NaN,NaN,NaN, NaN, NaN
20050702,001615,272881,33.097050,-117.479911,17.8,18.624,33.386,44.605,887.54,0.0,6.069,18.390,18.360, NaN,23.882,   NaN,16.36,1011.31,94.77,16.69,32.4,31.2,6.4,6.9,250.8,243.6,3.4,3.5,NaN, NaN,22.2,158.0,158.9,1120263377,1120263376,1,10.8,000975,000976,158.6,33.097138,-117.479920,10.70,NaN,NaN,18.628, NaN,NaN,NaN, NaN, NaN
20050702,001645,272911,33.095635,-117.479271,17.9,18.269,33.578,44.490,834.33,0.0,6.711,18.455,18.425, NaN,24.117,   NaN,16.41,1011.25,94.97,16.69,26.3,25.9,6.9,7.3,235.4,231.2,3.1,3.4,NaN, NaN,22.3,160.5,159.6,1120263407,1120263407,1,10.9,001005,001007,158.3,33.095673,-117.479261,10.84,NaN,NaN,18.273, NaN,NaN,NaN, NaN, NaN
20050702,001715,272941,33.094223,-117.478641,17.8,18.125,33.488,44.244,787.63,0.0,6.201,18.498,18.468, NaN,24.084,   NaN,16.37,1011.31,94.77,16.69,18.8,20.4,7.4,7.8,216.7,215.8,2.7,3.2,NaN, NaN,22.1,159.7,159.4,1120263437,1120263437,1,10.8,001035,001037,158.5,33.094257,-117.478635,10.77,NaN,NaN,18.129, NaN,NaN,NaN, NaN, NaN
20050702,001745,272970,33.092807,-117.478018,17.7,18.269,33.337,44.204,751.43,0.0,6.239,18.542,18.510, NaN,23.933,   NaN,16.33,1011.34,94.73,16.65,19.3,20.4,6.5,6.8,236.1,232.2,2.3,2.5,NaN, NaN,22.4,159.0,159.6,1120263467,1120263467,1,10.9,001065,001067,158.6,33.092845,-117.478008,10.91,NaN,NaN,18.273, NaN,NaN,NaN, NaN, NaN
20050702,001816,273002,33.091345,-117.477365,17.6,18.363,33.329,44.286,727.35,0.0,6.258,18.581,18.551, NaN,23.904,   NaN,16.34,1011.33,94.87,16.65,23.0,22.8,5.4,5.7,264.7,257.0,2.1,2.2,NaN, NaN,22.3,160.8,160.4,1120263497,1120263497,1,10.8,001096,001097,158.0,33.091428,-117.477378,10.88,NaN,NaN,18.367, NaN,NaN,NaN, NaN, NaN
20050702,001845,273031,33.089933,-117.476710,17.9,18.442,33.326,44.359,712.19,0.0,6.296,18.597,18.566, NaN,23.882,   NaN,16.40,1011.30,94.97,16.67,26.1,26.4,5.2,5.4,271.2,266.8,2.4,2.5,NaN, NaN,22.0,161.0,159.9,1120263527,1120263527,1,10.9,001126,001127,158.5,33.090017,-117.476723,10.97,NaN,NaN,18.446, NaN,NaN,NaN, NaN, NaN
20050702,001915,273061,33.088527,-117.476058,17.9,18.546,33.326,44.458,706.07,0.0,6.314,18.608,18.579, NaN,23.856,   NaN,16.45,1011.28,94.98,16.73,30.8,30.5,5.8,6.0,261.3,258.1,3.1,3.2,NaN, NaN,22.1,157.0,158.6,1120263557,1120263557,1,10.9,001156,001157,158.8,33.088608,-117.476073,10.89,NaN,NaN,18.550, NaN,NaN,NaN, NaN, NaN
20050702,001945,273091,33.087120,-117.475400,18.0,18.605,33.340,44.533,710.97,0.0,6.107,18.638,18.608, NaN,23.852,   NaN,16.41,1011.28,94.81,16.69,31.2,30.6,6.5,6.9,249.4,243.6,3.4,3.5,NaN, NaN,21.7,159.2,157.7,1120263587,1120263586,1,10.9,001186,001186,158.1,33.087248,-117.475433,10.87,NaN,NaN,18.609, NaN,NaN,NaN, NaN, NaN
20050702,002015,273120,33.085712,-117.474720,18.0,18.732,33.311,44.621,725.49,0.0,6.050,18.670,18.639, NaN,23.798,   NaN,16.43,1011.25,94.88,16.73,30.0,29.4,6.9,7.2,243.2,237.9,3.5,3.7,NaN, NaN,21.9,159.8,158.6,1120263617,1120263617,1,10.9,001216,001217,159.1,33.085793,-117.474733,10.98,NaN,NaN,18.736, NaN,NaN,NaN, NaN, NaN
20050702,002045,273150,33.084298,-117.474065,17.8,18.812,33.328,44.718,748.45,0.0,6.296,18.710,18.681, NaN,23.791,   NaN,16.36,1011.24,94.66,16.70,29.9,29.2,7.5,7.9,235.5,230.5,3.9,4.1,NaN, NaN,21.8,157.9,158.2,1120263647,1120263647,1,10.9,001246,001247,158.8,33.084385,-117.474080,11.04,NaN,NaN,18.817, NaN,NaN,NaN, NaN, NaN
20050702,002115,273181,33.082883,-117.473425,17.9,18.936,33.314,44.821,773.49,0.0,6.239,18.756,18.726, NaN,23.749,   NaN,16.30,1011.30,94.65,16.65,30.3,29.7,7.4,7.9,237.3,231.7,3.8,4.1,NaN, NaN,21.6,161.3,160.3,1120263677,1120263677,1,11.0,001276,001277,158.6,33.082967,-117.473443,10.96,NaN,NaN,18.941, NaN,NaN,NaN, NaN, NaN
20050702,002145,273211,33.081522,-117.472796,17.8,18.980,33.348,44.904,786.00,0.0,6.258,18.782,18.750, NaN,23.764,   NaN,16.30,1011.31,94.75,16.63,32.4,31.6,6.7,7.0,247.3,242.8,3.6,3.8,NaN, NaN,21.5,160.5,159.8,1120263707,1120263707,1,10.8,001305,001307,158.8,33.081558,-117.472801,10.95,NaN,NaN,18.985, NaN,NaN,NaN, NaN, NaN
20050702,002216,273241,33.080055,-117.472143,17.8,18.957,33.403,44.948,785.25,0.0,6.144,18.803,18.774, NaN,23.812,   NaN,16.36,1011.33,94.90,16.66,34.4,32.5,6.0,6.3,259.0,252.9,3.4,3.4,NaN, NaN,22.0,158.5,159.6,1120263737,1120263737,1,10.9,001336,001337,157.5,33.080142,-117.472163,11.05,NaN,NaN,18.962, NaN,NaN,NaN, NaN, NaN
20050702,002246,273272,33.078648,-117.471460,15.9,18.964,33.380,44.927,795.48,0.0,9.051,18.818,18.788, NaN,23.792,   NaN,16.35,1011.36,94.73,16.67,32.4,30.6,5.5,5.8,268.9,259.5,3.1,3.0,NaN, NaN,21.6,159.9,159.1,1120263768,1120263768,1,11.0,001366,001368,159.0,33.078690,-117.471458,10.94,NaN,NaN,18.969, NaN,NaN,NaN, NaN, NaN
20050702,002316,273302,33.077175,-117.470806,16.3,18.972,33.389,44.946,830.05,0.0,7.088,18.819,18.788, NaN,23.797,   NaN,16.35,1011.32,94.79,16.67,34.1,33.0,5.1,5.5,275.1,266.3,3.2,3.2,NaN, NaN,21.4,158.7,159.0,1120263798,1120263798,1,11.0,001397,001398,158.6,33.077258,-117.470828,10.91,NaN,NaN,18.977, NaN,NaN,NaN, NaN, NaN
20050702,002346,273332,33.075802,-117.470195,16.6,19.012,33.368,44.959,761.09,0.0,6.333,18.818,18.785, NaN,23.771,   NaN,16.34,1011.34,94.72,16.66,37.8,37.7,4.8,4.9,280.8,279.1,3.5,3.5,NaN, NaN,21.5,158.0,159.4,1120263827,1120263827,1,10.9,001426,001427,158.6,33.075885,-117.470211,10.95,NaN,NaN,19.017, NaN,NaN,NaN, NaN, NaN
20050702,002416,273362,33.074327,-117.469543,16.6,19.030,33.381,44.992,711.63,0.0,6.012,18.827,18.798, NaN,23.777,   NaN,16.32,1011.37,94.77,16.64,36.3,37.8,4.7,4.6,284.2,284.7,3.3,3.4,NaN, NaN,21.6,161.7,160.6,1120263858,1120263858,1,10.9,001457,001458,158.3,33.074412,-117.469566,10.98,NaN,NaN,19.035, NaN,NaN,NaN, NaN, NaN
20050702,002446,273391,33.072965,-117.468931,17.4,19.036,33.388,45.007,680.28,0.0,6.126,18.838,18.808, NaN,23.781,   NaN,16.37,1011.38,94.90,16.68,34.0,35.2,4.5,4.5,286.7,285.0,3.1,3.2,NaN, NaN,21.7,156.4,157.6,1120263887,1120263887,1,10.8,001486,001487,158.3,33.073047,-117.468951,10.86,NaN,NaN,19.041, NaN,NaN,NaN, NaN, NaN
20050702,002516,273422,33.071490,-117.468291,17.6,18.986,33.425,45.004,665.03,0.0,5.993,18.847,18.816, NaN,23.821,   NaN,16.38,1011.34,94.85,16.68,35.0,34.2,4.7,4.9,282.5,279.0,3.2,3.1,NaN, NaN,21.6,157.1,160.8,1120263918,1120263918,1,10.8,001517,001518,158.0,33.071582,-117.468320,10.86,NaN,NaN,18.991, NaN,NaN,NaN, NaN, NaN
20050702,002546,273452,33.070120,-117.467660,17.7,18.868,33.467,44.939,669.27,0.0,6.465,18.867,18.835, NaN,23.884,   NaN,16.44,1011.32,95.02,16.71,36.6,34.5,5.4,5.6,272.8,266.9,3.5,3.3,NaN, NaN,21.6,162.0,159.4,1120263947,1120263947,1,11.0,001546,001547,158.5,33.070208,-117.467685,10.91,NaN,NaN,18.873, NaN,NaN,NaN, NaN, NaN
20050702,002616,273482,33.068698,-117.467025,17.8,18.951,33.365,44.896,687.54,0.0,6.484,18.886,18.854, NaN,23.784,   NaN,16.47,1011.31,94.88,16.74,38.6,37.7,6.1,6.3,262.1,259.5,3.9,3.9,NaN, NaN,22.0,159.9,159.0,1120263977,1120263977,1,11.0,001576,001577,158.5,33.068790,-117.467050,10.96,NaN,NaN,18.956, NaN,NaN,NaN, NaN, NaN
20050702,002646,273512,33.067235,-117.466363,17.5,19.067,33.334,44.973,713.39,0.0,6.541,18.901,18.868, NaN,23.731,   NaN,16.41,1011.33,94.80,16.73,37.9,37.7,6.6,6.9,254.9,251.1,4.0,4.2,NaN, NaN,22.1,158.7,158.6,1120264008,1120264008,1,10.9,001607,001608,159.3,33.067325,-117.466388,10.97,NaN,NaN,19.072, NaN,NaN,NaN, NaN, NaN
20050702,002716,273541,33.065870,-117.465736,17.5,19.113,33.355,45.041,733.15,0.0,6.465,18.919,18.889, NaN,23.735,   NaN,16.37,1011.31,94.77,16.69,37.0,38.0,6.5,6.9,254.3,250.8,3.9,4.2,NaN, NaN,22.4,157.3,158.1,1120264038,1120264038,1,11.0,001636,001638,157.4,33.065912,-117.465731,10.82,NaN,NaN,19.118, NaN,NaN,NaN, NaN, NaN
20050702,002746,273571,33.064403,-117.465053,16.4,19.161,33.358,45.092,728.41,0.0,6.824,18.941,18.910, NaN,23.726,   NaN,16.41,1011.28,94.98,16.70,38.3,40.0,6.5,6.6,256.2,256.0,4.0,4.3,NaN, NaN,22.1,157.4,159.0,1120264068,1120264068,1,10.9,001667,001668,159.1,33.064498,-117.465073,10.95,NaN,NaN,19.166, NaN,NaN,NaN, NaN, NaN
20050702,002816,273602,33.063035,-117.464400,14.8,19.196,33.362,45.131,720.91,0.0,6.786,18.960,18.926, NaN,23.720,   NaN,16.46,1011.31,95.00,16.76,39.2,41.2,6.5,6.6,256.5,256.8,4.2,4.4,NaN, NaN,22.1,156.4,158.1,1120264097,1120264097,1,10.9,001696,001697,159.3,33.063127,-117.464415,10.98,NaN,NaN,19.201, NaN,NaN,NaN, NaN, NaN
20050702,002846,273632,33.061617,-117.463730,10.3,19.233,33.354,45.157,716.93,0.0,7.032,18.982,18.948, NaN,23.704,   NaN,16.36,1011.32,94.71,16.71,39.9,39.5,6.8,6.8,254.2,253.5,4.4,4.4,NaN, NaN,21.7,154.8,158.0,1120264128,1120264127,1,10.8,001726,001727,157.6,33.061707,-117.463746,10.81,NaN,NaN,19.238, NaN,NaN,NaN, NaN, NaN
20050702,002917,273662,33.060157,-117.463033,10.1,19.254,33.358,45.182,709.92,0.0,7.541,18.995,18.960, NaN,23.702,   NaN,16.32,1011.33,94.81,16.66,34.2,34.8,7.0,7.3,245.3,243.7,4.0,4.3,NaN, NaN,21.9,160.5,159.2,1120264158,1120264158,1,11.0,001757,001758,159.5,33.060245,-117.463048,10.72,NaN,NaN,19.259, NaN,NaN,NaN, NaN, NaN
20050702,002946,273692,33.058790,-117.462411,10.1,19.278,33.356,45.202,706.19,0.0,7.126,18.997,18.962, NaN,23.694,   NaN,16.23,1011.35,94.65,16.61,30.5,31.7,7.2,7.5,239.0,237.8,3.7,4.1,NaN, NaN,22.3,159.9,159.7,1120264188,1120264188,1,10.9,001786,001788,159.0,33.058827,-117.462408,10.76,NaN,NaN,19.283, NaN,NaN,NaN, NaN, NaN
20050702,003017,273723,33.057332,-117.461736,10.0,19.299,33.358,45.225,701.95,0.0,7.088,18.996,18.962, NaN,23.691,   NaN,16.19,1011.36,94.75,16.57,33.3,34.0,6.9,7.1,246.0,244.8,3.8,4.0,NaN, NaN,22.0,159.7,158.0,1120264218,1120264218,1,10.9,001817,001818,158.6,33.057417,-117.461755,10.72,NaN,NaN,19.304, NaN,NaN,NaN, NaN, NaN
20050702,003047,273753,33.055925,-117.461085,10.0,19.307,33.369,45.247,690.50,0.0,7.032,18.985,18.949, NaN,23.697,   NaN,16.21,1011.39,94.86,16.58,38.0,39.8,6.1,6.2,259.9,259.9,3.8,4.1,NaN, NaN,22.7,155.8,155.8,1120264248,1120264248,1,11.0,001847,001848,158.8,33.056008,-117.461103,10.80,NaN,NaN,19.312, NaN,NaN,NaN, NaN, NaN
20050702,003117,273782,33.054462,-117.460413,10.0,19.295,33.391,45.261,663.92,0.0,6.730,18.962,18.927, NaN,23.717,   NaN,16.20,1011.39,94.80,16.57,38.8,41.6,5.3,5.5,272.6,271.5,3.7,4.0,NaN, NaN,21.9,155.4,158.1,1120264279,1120264279,1,10.9,001878,001879,158.6,33.054547,-117.460430,10.93,NaN,NaN,19.300, NaN,NaN,NaN, NaN, NaN
20050702,003148,273814,33.053055,-117.459746,9.9,19.281,33.406,45.267,633.45,0.0,6.767,18.947,18.913, NaN,23.732,   NaN,16.24,1011.40,94.90,16.58,35.6,38.2,4.7,4.9,282.1,279.8,3.3,3.5,NaN, NaN,22.6,158.0,159.0,1120264309,1120264309,1,10.9,001908,001909,158.6,33.053142,-117.459765,10.72,NaN,NaN,19.286, NaN,NaN,NaN, NaN, NaN
20050702,003217,273843,33.051633,-117.459100,16.5,19.226,33.444,45.259,609.96,0.0,6.767,18.945,18.911, NaN,23.775,   NaN,16.28,1011.38,94.96,16.60,33.3,34.0,4.7,4.9,281.9,278.5,3.1,3.2,NaN, NaN,22.2,156.7,157.9,1120264339,1120264339,1,10.9,001938,001939,158.8,33.051720,-117.459118,10.92,NaN,NaN,19.231, NaN,NaN,NaN, NaN, NaN
20050702,003247,273873,33.050257,-117.458481,17.5,19.220,33.413,45.216,600.41,0.0,6.824,18.959,18.924, NaN,23.753,   NaN,16.33,1011.35,94.99,16.64,29.7,30.1,5.6,6.1,263.9,257.4,3.0,3.2,NaN, NaN,21.9,158.3,159.2,1120264369,1120264369,1,10.9,001967,001969,158.3,33.050297,-117.458478,10.73,NaN,NaN,19.225, NaN,NaN,NaN, NaN, NaN
20050702,003317,273903,33.048790,-117.457815,17.5,19.257,33.386,45.219,603.28,0.0,7.013,18.978,18.944, NaN,23.723,   NaN,16.31,1011.34,94.89,16.63,28.1,29.2,6.6,7.0,245.1,239.9,3.1,3.5,NaN, NaN,21.8,160.7,159.5,1120264399,1120264399,1,11.0,001998,001999,158.5,33.048877,-117.457833,10.78,NaN,NaN,19.262, NaN,NaN,NaN, NaN, NaN
20050702,003348,273934,33.047362,-117.457171,17.6,19.267,33.390,45.234,614.11,0.0,7.277,19.000,18.967, NaN,23.723,   NaN,16.35,1011.24,95.07,16.66,31.0,31.1,7.1,7.6,241.3,235.7,3.6,4.0,NaN, NaN,24.5,165.3,161.0,1120264429,1120264429,1,11.0,002028,002029,158.6,33.047445,-117.457190,10.78,NaN,NaN,19.272, NaN,NaN,NaN, NaN, NaN
20050702,003417,273962,33.045995,-117.456541,17.5,19.287,33.388,45.250,625.53,0.0,7.220,19.018,18.984, NaN,23.717,   NaN,16.31,1011.32,94.88,16.66,35.8,36.0,7.1,7.5,246.7,242.8,4.1,4.4,NaN, NaN,23.7,161.2,160.3,1120264459,1120264459,1,10.9,002057,002059,158.8,33.046025,-117.456543,10.77,NaN,NaN,19.292, NaN,NaN,NaN, NaN, NaN
20050702,003447,273992,33.044523,-117.455880,17.5,19.275,33.403,45.256,626.06,0.0,7.334,19.029,18.993, NaN,23.731,   NaN,16.22,1011.35,94.80,16.60,38.9,40.4,6.7,7.0,254.6,253.3,4.2,4.5,NaN, NaN,23.5,158.5,158.5,1120264489,1120264489,1,10.9,002088,002089,158.6,33.044603,-117.455906,10.92,NaN,NaN,19.280, NaN,NaN,NaN, NaN, NaN
20050702,003517,274023,33.043097,-117.455251,17.4,19.291,33.390,45.256,607.10,0.0,7.315,19.032,18.997, NaN,23.717,   NaN,16.20,1011.38,94.89,16.57,36.4,37.6,6.0,6.1,263.0,262.2,3.6,3.8,NaN, NaN,22.9,159.9,159.8,1120264519,1120264519,1,10.9,002118,002119,158.7,33.043175,-117.455278,11.01,NaN,NaN,19.296, NaN,NaN,NaN, NaN, NaN
20050702,003547,274053,33.041662,-117.454618,17.3,19.281,33.406,45.267,580.62,0.0,7.107,19.045,19.012, NaN,23.732,   NaN,16.22,1011.37,95.05,16.56,32.9,33.4,5.6,5.8,267.1,263.0,3.1,3.2,NaN, NaN,22.7,159.5,159.6,1120264549,1120264549,1,10.9,002148,002149,158.6,33.041742,-117.454643,10.82,NaN,NaN,19.286, NaN,NaN,NaN, NaN, NaN
20050702,003617,274083,33.040227,-117.453991,17.6,19.293,33.385,45.253,551.50,0.0,7.202,19.059,19.025, NaN,23.713,   NaN,16.31,1011.39,95.24,16.60,31.0,31.1,5.3,5.6,271.4,265.4,2.9,3.0,NaN, NaN,22.4,162.5,161.1,1120264579,1120264579,1,11.1,002178,002179,159.0,33.040303,-117.454016,10.99,NaN,NaN,19.298, NaN,NaN,NaN, NaN, NaN